User: anonymous   Login
Location: Unspecified
(0.0000°N, 0.0000°E)
Time: 06:45:04
(UTC+02:00)
Language:

ATLAS 2AS CENTAUR R/B - Orbit

View from above orbital plane
View from above orbital plane
View from above satellite
View from above satellite

Ground track
Ground track

The orbit data is extracted from the following two-line orbital elements,

1 28096U 03054B   17234.91351303 0.00000030  00000-0  44213-4 0    03
2 28096  63.6665 249.1102 0264715 261.0141  98.9859 13.40830257    09
Epoch (UTC): 22 August 2017 21:55:27
Eccentricity: 0.0264715
inclination: 63.6665°
perigee height: 908 km
apogee height: 1304 km
right ascension of ascending node: 249.1102°
argument of perigee: 261.0141°
revolutions per day: 13.40830257
mean anomaly at epoch: 98.9859°
orbit number at epoch: 0

The dashed part of the orbit path shows where the satellite is in the earth's shadow,  

DLR